Home   Weather   Eucla   Past weeks

Flag for Australia Past Weather in Eucla, Western Australia, Australia — Yesterday and Last 2 Weeks

Now
70 °F

Low clouds.


Feels Like: 72 °F
Forecast: 61 / 69 °F
Wind: 17 mph from Southwest

Location: Eucla Amo

Current Time: Jan 23, 2017 at 5:40:28 pm

Latest Report: Jan 23, 2017 at 3:45 pm


Visibility: 9 mi

Pressure: 29.86 "Hg

Humidity: 76%

Dew Point: 62 °F

Location of EuclaLocation

Past Weather in Eucla — Graph

°F

Eucla Temperature Yesterday

Maximum temperature yesterday: 72 °F (at 12:45 pm)
Minimum temperature yesterday: 65 °F (at 6:45 am)
Average temperature yesterday: 68 °F

High & Low Weather Summary for the Past Weeks

 TemperatureHumidityPressure
High107 °F (Jan 16, 12:45 pm)96% (Jan 23, 5:45 am)30.12 "Hg (Jan 23, 5:45 am)
Low57 °F (Jan 15, 5:45 am)16% (Jan 16, 11:45 am)29.44 "Hg (Jan 12, 3:45 pm)
Average69 °F73%29.84 "Hg
* Reported Jan 8 3:45 pm — Jan 23 3:45 pm, Eucla, Weather by CustomWeather, © 2017

Note: Actual official high and low records may vary slightly from our data, if they occured in-between our weather recording intervals... More about our weather records

Advertising

Eucla Weather History for the Previous 24 Hours

Scroll right to see more
 ConditionsComfort  
Time TempWeatherWind HumidityBarometerVisibility
3:45 pm
Mon, Jan 23
70 °FLow clouds.17 mph76%29.86 "Hg9 mi
2:45 pm70 °FMild.18 mph76%29.85 "HgN/A
12:45 pm72 °FMild.15 mph77%29.83 "HgN/A
11:45 am72 °FMild.13 mph83%29.82 "HgN/A
9:45 am69 °FFog.10 mph95%29.79 "Hg1 mi
8:45 am69 °FMild.9 mph96%29.77 "HgN/A
6:45 am67 °FMild.7 mph96%29.72 "HgN/A
5:45 am66 °FMild.8 mph96%29.69 "HgN/A
3:45 am66 °FMild.No wind94%29.64 "HgN/A
2:45 am67 °FMild.3 mph94%29.64 "HgN/A
12:45 am68 °FMild.3 mph92%29.67 "HgN/A
11:45 pm
Sun, Jan 22
69 °FMild.6 mph92%29.71 "HgN/A
9:45 pm68 °FMild.7 mph93%29.72 "HgN/A
8:45 pm69 °FMild.8 mph91%29.71 "HgN/A
6:45 pm70 °FMild.8 mph87%29.71 "HgN/A
5:45 pm71 °FMild.8 mph82%29.69 "HgN/A
Weather by CustomWeather, © 2017

See weather overviewHow to use our weather pages